^^
North Bend WA Weather Station Historical Data
 
Daily Summary for January 28, 2020 Units:  English    Metric   Both
Daily Weekly Monthly Yearly Custom
  Current: High: Low: Average:
Temperature: 43 °F 44 °F 41 °F 42.1 °F
Dew Point: 40 °F 40 °F 38 °F 38.5 °F
Humidity: 89% 90% 81% 87%
Wind Speed: 2mph 13mph 1mph 6.3mph
Wind Gust: 7mph 25mph - -
WindESE - - ESE
Pressure: 29.93 in 29.93 in 29.83 in -
Precipitation: 0.36 in      
Historical Graphs
 
 
Tabular Data for January 28, 2020
Time Temperature Dew Point Pressure Wind Wind Speed Wind Gust Humidity Rainfall Rate (Hourly) solar
00:04 42 °F 38 °F 29.86 in SE 12 mph 20 mph 87% 0.04 in 0 W/m2
00:09 42 °F 38 °F 29.87 in SE 13 mph 17 mph 87% 0.03 in 0 W/m2
00:14 42 °F 38 °F 29.87 in ESE 13 mph 20 mph 87% 0.04 in 0 W/m2
00:19 41 °F 38 °F 29.87 in SE 13 mph 21 mph 87% 0.05 in 0 W/m2
00:24 41 °F 38 °F 29.87 in SE 10 mph 21 mph 87% 0.06 in 0 W/m2
00:29 41 °F 38 °F 29.87 in SE 11 mph 17 mph 87% 0.07 in 0 W/m2
00:34 41 °F 38 °F 29.87 in SE 12 mph 17 mph 87% 0.08 in 0 W/m2
00:39 41 °F 38 °F 29.87 in SE 8 mph 17 mph 88% 0.08 in 0 W/m2
00:44 41 °F 38 °F 29.87 in SE 10 mph 17 mph 88% 0.08 in 0 W/m2
00:49 41 °F 38 °F 29.87 in SE 7 mph 17 mph 88% 0.08 in 0 W/m2
00:54 42 °F 38 °F 29.87 in ESE 7 mph 13 mph 88% 0.1 in 0 W/m2
00:59 42 °F 38 °F 29.87 in ESE 7 mph 12 mph 88% 0.11 in 0 W/m2
01:04 42 °F 38 °F 29.87 in ESE 8 mph 14 mph 88% 0.12 in 0 W/m2
01:09 42 °F 38 °F 29.87 in ESE 10 mph 16 mph 88% 0.13 in 0 W/m2
01:14 42 °F 38 °F 29.87 in ESE 7 mph 16 mph 88% 0.12 in 0 W/m2
01:19 42 °F 38 °F 29.87 in ESE 8 mph 25 mph 88% 0.12 in 0 W/m2
01:24 41 °F 38 °F 29.88 in ESE 6 mph 25 mph 88% 0.11 in 0 W/m2
01:29 41 °F 38 °F 29.88 in ESE 6 mph 10 mph 89% 0.1 in 0 W/m2
01:34 42 °F 39 °F 29.89 in ESE 6 mph 12 mph 89% 0.1 in 0 W/m2
01:39 42 °F 39 °F 29.89 in E 4 mph 12 mph 89% 0.1 in 0 W/m2
01:44 42 °F 39 °F 29.88 in ESE 1 mph 8 mph 89% 0.09 in 0 W/m2
01:49 41 °F 38 °F 29.88 in SE 4 mph 9 mph 89% 0.12 in 0 W/m2
01:54 41 °F 38 °F 29.88 in SSE 4 mph 9 mph 89% 0.13 in 0 W/m2
01:59 41 °F 38 °F 29.88 in SE 5 mph 10 mph 89% 0.12 in 0 W/m2
02:04 41 °F 39 °F 29.88 in SE 7 mph 13 mph 90% 0.12 in 0 W/m2
02:09 41 °F 39 °F 29.89 in ESE 7 mph 13 mph 90% 0.11 in 0 W/m2
02:14 41 °F 39 °F 29.88 in SE 5 mph 10 mph 90% 0.11 in 0 W/m2
02:19 41 °F 38 °F 29.88 in ESE 8 mph 14 mph 90% 0.11 in 0 W/m2
02:24 41 °F 38 °F 29.88 in SE 7 mph 14 mph 90% 0.11 in 0 W/m2
02:29 41 °F 38 °F 29.87 in ESE 7 mph 14 mph 90% 0.1 in 0 W/m2
02:34 41 °F 38 °F 29.87 in SE 8 mph 14 mph 90% 0.1 in 0 W/m2
02:39 41 °F 38 °F 29.87 in SE 7 mph 14 mph 90% 0.09 in 0 W/m2
02:44 41 °F 38 °F 29.86 in SE 9 mph 15 mph 90% 0.08 in 0 W/m2
02:49 41 °F 39 °F 29.86 in SE 9 mph 17 mph 90% 0.08 in 0 W/m2
02:54 41 °F 38 °F 29.86 in SE 8 mph 17 mph 89% 0.04 in 0 W/m2
02:59 41 °F 38 °F 29.86 in SE 9 mph 13 mph 89% 0.03 in 0 W/m2
03:04 41 °F 38 °F 29.87 in SE 7 mph 19 mph 89% 0.02 in 0 W/m2
03:09 41 °F 38 °F 29.86 in ESE 9 mph 20 mph 88% 0.02 in 0 W/m2
03:14 41 °F 38 °F 29.87 in ESE 9 mph 20 mph 88% 0.01 in 0 W/m2
03:19 41 °F 38 °F 29.87 in ESE 7 mph 15 mph 88% 0.01 in 0 W/m2
03:24 41 °F 38 °F 29.87 in ESE 7 mph 13 mph 88% 0 in 0 W/m2
03:29 42 °F 38 °F 29.87 in SE 7 mph 14 mph 87% 0 in 0 W/m2
03:34 42 °F 38 °F 29.87 in ESE 6 mph 14 mph 87% 0 in 0 W/m2
03:39 42 °F 38 °F 29.86 in ESE 5 mph 9 mph 87% 0 in 0 W/m2
03:44 41 °F 38 °F 29.86 in ESE 5 mph 13 mph 87% 0 in 0 W/m2
03:49 42 °F 38 °F 29.86 in SE 7 mph 13 mph 86% 0 in 0 W/m2
03:54 42 °F 38 °F 29.86 in ESE 6 mph 12 mph 86% 0 in 0 W/m2
03:59 42 °F 38 °F 29.85 in ESE 8 mph 12 mph 85% 0 in 0 W/m2
04:04 42 °F 38 °F 29.85 in ESE 7 mph 14 mph 85% 0 in 0 W/m2
04:09 42 °F 38 °F 29.85 in SE 9 mph 14 mph 84% 0 in 0 W/m2
04:14 42 °F 38 °F 29.86 in ESE 6 mph 14 mph 83% 0 in 0 W/m2
04:19 42 °F 38 °F 29.85 in ESE 4 mph 12 mph 83% 0 in 0 W/m2
04:24 42 °F 38 °F 29.85 in E 5 mph 12 mph 84% 0 in 0 W/m2
04:29 42 °F 38 °F 29.85 in ESE 2 mph 12 mph 84% 0 in 0 W/m2
04:34 42 °F 38 °F 29.86 in SE 4 mph 13 mph 85% 0 in 0 W/m2
04:39 42 °F 38 °F 29.86 in ESE 5 mph 13 mph 85% 0 in 0 W/m2
04:44 42 °F 38 °F 29.86 in ESE 4 mph 9 mph 85% 0 in 0 W/m2
04:49 42 °F 38 °F 29.85 in ESE 7 mph 12 mph 85% 0 in 0 W/m2
04:54 43 °F 38 °F 29.85 in ESE 7 mph 12 mph 84% 0 in 0 W/m2
04:59 43 °F 38 °F 29.84 in ESE 9 mph 12 mph 83% 0 in 0 W/m2
05:04 43 °F 38 °F 29.84 in ESE 7 mph 12 mph 83% 0 in 0 W/m2
05:09 43 °F 38 °F 29.83 in ESE 7 mph 12 mph 83% 0 in 0 W/m2
05:14 43 °F 38 °F 29.84 in ESE 5 mph 13 mph 83% 0 in 0 W/m2
05:19 43 °F 38 °F 29.84 in E 5 mph 13 mph 83% 0 in 0 W/m2
05:24 43 °F 38 °F 29.84 in ESE 7 mph 16 mph 82% 0 in 0 W/m2
05:29 43 °F 38 °F 29.84 in ESE 8 mph 16 mph 82% 0 in 0 W/m2
05:34 43 °F 38 °F 29.84 in ESE 4 mph 13 mph 82% 0 in 0 W/m2
05:39 43 °F 38 °F 29.84 in ESE 6 mph 12 mph 83% 0 in 0 W/m2
05:44 44 °F 39 °F 29.84 in ESE 7 mph 15 mph 82% 0 in 0 W/m2
05:49 44 °F 38 °F 29.84 in ESE 6 mph 15 mph 81% 0 in 0 W/m2
05:54 44 °F 38 °F 29.84 in ESE 7 mph 13 mph 81% 0 in 0 W/m2
05:59 44 °F 38 °F 29.84 in ESE 8 mph 14 mph 81% 0 in 0 W/m2
06:04 44 °F 39 °F 29.84 in ESE 8 mph 14 mph 82% 0.01 in 0 W/m2
06:09 43 °F 39 °F 29.85 in ESE 5 mph 12 mph 83% 0.01 in 0 W/m2
06:14 43 °F 39 °F 29.85 in ESE 7 mph 12 mph 83% 0.01 in 0 W/m2
06:19 43 °F 39 °F 29.85 in ESE 7 mph 12 mph 83% 0.02 in 0 W/m2
06:24 44 °F 39 °F 29.85 in ESE 8 mph 14 mph 83% 0.02 in 0 W/m2
06:29 43 °F 39 °F 29.86 in ESE 7 mph 14 mph 83% 0.02 in 0 W/m2
06:34 43 °F 39 °F 29.86 in SE 6 mph 10 mph 84% 0.03 in 0 W/m2
06:39 43 °F 39 °F 29.86 in SE 6 mph 12 mph 85% 0.03 in 0 W/m2
06:44 43 °F 39 °F 29.87 in ESE 6 mph 12 mph 86% 0.04 in 0 W/m2
06:49 43 °F 39 °F 29.87 in SE 4 mph 10 mph 86% 0.05 in 0 W/m2
06:54 43 °F 39 °F 29.86 in SE 5 mph 12 mph 86% 0.06 in 0 W/m2
06:59 42 °F 39 °F 29.86 in SE 6 mph 10 mph 87% 0.06 in 0 W/m2
07:04 42 °F 39 °F 29.87 in ESE 5 mph 11 mph 87% 0.06 in 0 W/m2
07:09 42 °F 39 °F 29.87 in ESE 4 mph 12 mph 87% 0.06 in 0 W/m2
07:14 42 °F 39 °F 29.87 in ESE 2 mph 6 mph 87% 0.05 in 0 W/m2
07:19 42 °F 39 °F 29.88 in SE 6 mph 13 mph 87% 0.06 in 0 W/m2
07:24 42 °F 39 °F 29.88 in ESE 5 mph 13 mph 88% 0.06 in 0 W/m2
07:29 42 °F 39 °F 29.88 in ESE 6 mph 10 mph 88% 0.06 in 0 W/m2
07:34 42 °F 39 °F 29.88 in ESE 4 mph 10 mph 88% 0.06 in 0 W/m2
07:39 42 °F 39 °F 29.89 in E 3 mph 7 mph 88% 0.07 in 0 W/m2
07:44 42 °F 39 °F 29.89 in ESE 4 mph 8 mph 88% 0.06 in 0 W/m2
07:49 42 °F 39 °F 29.89 in ESE 3 mph 8 mph 89% 0.05 in 0 W/m2
07:54 42 °F 39 °F 29.89 in ESE 5 mph 13 mph 89% 0.05 in 0 W/m2
07:59 42 °F 39 °F 29.89 in SE 6 mph 13 mph 89% 0.04 in 0 W/m2
08:04 42 °F 39 °F 29.89 in SE 4 mph 12 mph 89% 0.04 in 9.5 W/m2
08:09 42 °F 39 °F 29.89 in SE 5 mph 12 mph 89% 0.04 in 13.3 W/m2
08:14 42 °F 39 °F 29.89 in SE 4 mph 12 mph 89% 0.04 in 21 W/m2
08:19 42 °F 39 °F 29.9 in ESE 3 mph 7 mph 88% 0.04 in 23 W/m2
08:24 42 °F 39 °F 29.9 in ESE 4 mph 7 mph 88% 0.03 in 21 W/m2
08:29 42 °F 39 °F 29.91 in ESE 3 mph 7 mph 88% 0.03 in 17.3 W/m2
08:34 42 °F 39 °F 29.91 in ESE 3 mph 6 mph 88% 0.02 in 13.4 W/m2
08:39 42 °F 39 °F 29.91 in SE 6 mph 14 mph 88% 0.02 in 13.4 W/m2
08:44 43 °F 39 °F 29.92 in ESE 7 mph 14 mph 88% 0.01 in 13.4 W/m2
08:49 43 °F 39 °F 29.92 in ESE 5 mph 12 mph 87% 0.01 in 9.5 W/m2
08:54 43 °F 39 °F 29.92 in ESE 7 mph 12 mph 87% 0.01 in 20.8 W/m2
08:59 43 °F 39 °F 29.92 in ESE 6 mph 12 mph 88% 0 in 32 W/m2
09:04 43 °F 39 °F 29.92 in ESE 6 mph 12 mph 87% 0 in 92.9 W/m2
09:09 43 °F 40 °F 29.92 in ESE 6 mph 12 mph 87% 0 in 96.7 W/m2
09:14 43 °F 40 °F 29.92 in SE 6 mph 10 mph 88% 0 in 80.1 W/m2
09:19 43 °F 39 °F 29.92 in ESE 5 mph 10 mph 88% 0.01 in 63.1 W/m2
09:24 43 °F 39 °F 29.92 in ESE 4 mph 10 mph 87% 0.01 in 120.9 W/m2
09:29 43 °F 39 °F 29.93 in ESE 5 mph 10 mph 88% 0.02 in 142 W/m2
09:34 43 °F 39 °F 29.92 in ESE 5 mph 10 mph 88% 0.02 in 216.2 W/m2
09:39 43 °F 39 °F 29.93 in ESE 5 mph 9 mph 88% 0.02 in 229.6 W/m2
09:44 43 °F 40 °F 29.93 in ESE 3 mph 9 mph 89% 0.02 in 225.7 W/m2
09:49 43 °F 40 °F 29.93 in ESE 2 mph 7 mph 89% 0.02 in 254.9 W/m2
North Bend WA Weather
Compliments of Weather Underground - 4 mb